This is the latest recevied weather packets stored in our database for station/object KF5WCW-1. If no packets are shown the sender has not sent any weather packets the latest 10 day(s).
| Time | Temp. | Humidity | Pressure | Rain* | Wind** | Luminosity | Snow |
|---|---|---|---|---|---|---|---|
| 1777244189 | 9.44° C | 52% | 0 hPa | 0 mm | - | - | - |
| 1777243889 | 10° C | 51% | 0 hPa | 0 mm | - | - | - |
| 1777243589 | 9.44° C | 51% | 0 hPa | 0 mm | - | - | - |
| 1777243289 | 9.44° C | 52% | 0 hPa | 0 mm | - | - | - |
| 1777242989 | 9.44° C | 51% | 0 hPa | 0 mm | - | - | - |
| 1777242689 | 10° C | 52% | 0 hPa | 0 mm | - | - | - |
| 1777242389 | 10° C | 52% | 0 hPa | 0 mm | - | - | - |
| 1777242089 | 9.44° C | 53% | 0 hPa | 0 mm | - | - | - |
| 1777241789 | 9.44° C | 52% | 0 hPa | 0 mm | - | - | - |
| 1777241489 | 10° C | 54% | 0 hPa | 0 mm | - | - | - |
| 1777241189 | 10° C | 55% | 0 hPa | 0 mm | - | - | - |
| 1777240889 | 8.89° C | 57% | 0 hPa | 0 mm | - | - | - |
| 1777240589 | 8.89° C | 57% | 0 hPa | 0 mm | - | - | - |
| 1777240289 | 8.89° C | 55% | 0 hPa | 0 mm | - | - | - |
| 1777239989 | 9.44° C | 54% | 0 hPa | 0 mm | - | - | - |
| 1777239689 | 9.44° C | 52% | 0 hPa | 0 mm | - | - | - |
| 1777239389 | 10° C | 51% | 0 hPa | 0 mm | - | - | - |
| 1777239089 | 10.56° C | 51% | 0 hPa | 0 mm | - | - | - |
| 1777238789 | 10.56° C | 52% | 0 hPa | 0 mm | - | - | - |
| 1777238489 | 10° C | 53% | 0 hPa | 0 mm | - | - | - |
| 1777238189 | 10° C | 53% | 0 hPa | 0 mm | - | - | - |
| 1777237889 | 9.44° C | 59% | 0 hPa | 0 mm | - | - | - |
| 1777237589 | 8.89° C | 55% | 0 hPa | 0 mm | - | - | - |
| 1777237289 | 8.33° C | 55% | 0 hPa | 0 mm | - | - | - |
| 1777236989 | 8.89° C | 58% | 0 hPa | 0 mm | - | - | - |
* Rain latest hour (hover to see other rain measurements)
** Current wind speed in m/s (hover to see current wind gust speed)